Location: Grossmotten
(48.5500°N, 15.3833°E)
Time: 02:55:09
(UTC+00:00)

SL-4 R/B - Pass Details

Date: 15 November 2019
Orbit: 428 x 667 km, 51.6° (Epoch: 11 December)

Event Time Altitude Azimuth Distance (km) Brightness Sun altitude
Exits shadow 04:11:24 37° 300° (WNW) 1,039 2.9 -18.8°
Maximum altitude 04:13:16 70° 13° (NNE) 713 2.5 -18.5°
Drops below altitude 10° 04:18:05 10° 98° (E) 2,077 6.3 -17.7°
Sets 04:20:25 0° 100° (E) 2,972 7.5 -17.4°
